Change the Weather History Date:

Saturday, March 2, 2013

  Actual Average (KOTM) Record (KOTM)
Temperature  
Mean Temperature 16 °F 33 °F  
Max Temperature 25 °F 43 °F 74 °F (1983)
Min Temperature 6 °F 23 °F -11 °F (1913)
Degree Days  
Heating Degree Days 50 32  
Month to date heating degree days 65  
Since 1 July heating degree days 4950  
Cooling Degree Days 0 0  
Month to date cooling degree days 0  
Year to date cooling degree days 0  
Moisture  
Dew Point 11 °F    
Average Humidity 78    
Maximum Humidity 90    
Minimum Humidity 65    
Precipitation  
Precipitation 0.00 in 0.06 in 1.02 in (1970)
Month to date precipitation 0.13  
Year to date precipitation 2.31  
Sea Level Pressure  
Sea Level Pressure 30.26 in    
Wind  
Wind Speed 8 mph (NW)    
Max Wind Speed 13 mph    
Max Gust Speed -    
Visibility 10 miles    
Events      
T = Trace of Precipitation, MM = Missing Value Source: NWS Daily Summary

Daily Weather History Graph

Daily Weather History Graph

Search for Another Location

Airport or City:

Trip Planner

Search our weather history database for the weather conditions in past years. The results will help you decide how hot, cold, wet, or windy it might be!

Date:

Astronomy

Mar. 02, 2013 Rise Set
Actual Time 6:42 AM CST 6:02 PM CST
Civil Twilight 6:14 AM CST 6:29 PM CST
Nautical Twilight 5:42 AM CST 7:01 PM CST
Astronomical Twilight 5:10 AM CST 7:33 PM CST
Moon 11:46 PM CST (3/2) 9:07 AM CST (3/2)
Length of Visible Light 12h 15m
Length of Day
11h 19m
Waning Gibbous, 74% of the Moon is Illuminated
Mar 2
Waning Gibbous
Mar 4
Last Quarter
Mar 11
New
Mar 19
First Quarter
Mar 27
Full

Hourly Weather History & Observations

Time (CST) Temp. Windchill Dew Point Humidity Pressure Visibility Wind Dir Wind Speed Gust Speed Precip Events Conditions
12:15 AM 23.0 °F 11.1 °F 15.8 °F 74% 30.29 in 10.0 mi NNW 12.7 mph - N/A   Overcast
12:35 AM 23.2 °F 12.6 °F 15.4 °F 72% 30.29 in 10.0 mi North 10.4 mph - N/A   Overcast
12:55 AM 23.2 °F 15.0 °F 14.9 °F 71% 30.28 in 10.0 mi NNW 6.9 mph - N/A   Overcast
1:15 AM 23.0 °F 14.7 °F 15.1 °F 72% 30.29 in 10.0 mi North 6.9 mph - N/A   Overcast
1:35 AM 22.6 °F 14.3 °F 15.6 °F 74% 30.29 in 10.0 mi NW 6.9 mph - N/A   Overcast
1:55 AM 22.1 °F 14.7 °F 15.8 °F 77% 30.28 in 10.0 mi NW 5.8 mph - N/A   Overcast
2:15 AM 22.1 °F 15.9 °F 15.8 °F 77% 30.27 in 10.0 mi NNW 4.6 mph - N/A   Overcast
2:35 AM 21.4 °F 12.8 °F 15.6 °F 78% 30.27 in 10.0 mi NW 6.9 mph - N/A   Overcast
2:55 AM 21.2 °F 11.7 °F 15.4 °F 78% 30.27 in 10.0 mi NNW 8.1 mph - N/A   Overcast
3:15 AM 21.2 °F 9.5 °F 14.9 °F 77% 30.26 in 10.0 mi NNW 11.5 mph - N/A   Overcast
3:35 AM 20.3 °F 7.7 °F 14.9 °F 80% 30.26 in 10.0 mi North 12.7 mph - N/A   Overcast
3:55 AM 18.1 °F 5.6 °F 12.9 °F 80% 30.26 in 10.0 mi NNW 11.5 mph - N/A   Scattered Clouds
4:15 AM 14.5 °F 1.9 °F 9.5 °F 80% 30.27 in 10.0 mi NW 10.4 mph - N/A   Clear
4:35 AM 12.4 °F -0.8 °F 9.0 °F 86% 30.27 in 10.0 mi NW 10.4 mph - N/A   Clear
4:55 AM 10.9 °F -2.6 °F 7.3 °F 85% 30.28 in 10.0 mi NW 10.4 mph - N/A   Clear
5:15 AM 8.6 °F -3.7 °F 5.5 °F 87% 30.28 in 10.0 mi NW 8.1 mph - N/A   Clear
5:35 AM 8.6 °F -3.7 °F 5.9 °F 89% 30.28 in 10.0 mi NW 8.1 mph - N/A   Clear
5:55 AM 7.7 °F -5.8 °F 4.8 °F 88% 30.29 in 10.0 mi NW 9.2 mph - N/A   Clear
6:15 AM 7.7 °F -3.7 °F 4.8 °F 88% 30.29 in 10.0 mi NW 6.9 mph - N/A   Clear
6:35 AM 7.0 °F -5.7 °F 3.7 °F 87% 30.29 in 10.0 mi NW 8.1 mph - N/A   Clear
6:55 AM 6.6 °F -8.0 °F 3.4 °F 87% 30.30 in 10.0 mi NW 10.4 mph - N/A   Clear
7:15 AM 7.3 °F -5.2 °F 4.1 °F 87% 30.29 in 7.0 mi NW 8.1 mph - N/A   Clear
7:35 AM 7.0 °F -5.7 °F 3.6 °F 86% 30.29 in 7.0 mi NW 8.1 mph - N/A   Clear
7:55 AM 7.3 °F -6.2 °F 3.9 °F 86% 30.30 in 7.0 mi NW 9.2 mph - N/A   Clear
8:15 AM 8.4 °F -2.8 °F 5.2 °F 87% 30.31 in 10.0 mi WNW 6.9 mph - N/A   Clear
8:35 AM 11.1 °F -0.6 °F 7.9 °F 87% 30.31 in 10.0 mi NW 8.1 mph - N/A   Clear
8:55 AM 12.7 °F 0.4 °F 8.6 °F 84% 30.31 in 10.0 mi NW 9.2 mph - N/A   Clear
9:15 AM 13.8 °F 1.8 °F 9.0 °F 81% 30.31 in 10.0 mi NW 9.2 mph - N/A   Clear
9:35 AM 14.9 °F 3.1 °F 9.5 °F 79% 30.31 in 10.0 mi NW 9.2 mph - N/A   Clear
9:55 AM 16.3 °F 4.9 °F 10.2 °F 77% 30.31 in 10.0 mi NW 9.2 mph - N/A   Clear
10:15 AM 16.7 °F 4.5 °F 10.4 °F 76% 30.31 in 10.0 mi NW 10.4 mph - N/A   Clear
10:35 AM 17.6 °F 7.3 °F 10.9 °F 75% 30.30 in 10.0 mi NW 8.1 mph - N/A   Clear
10:55 AM 18.3 °F 8.2 °F 11.3 °F 74% 30.30 in 10.0 mi NW 8.1 mph - N/A   Clear
11:15 AM 19.0 °F 7.5 °F 11.7 °F 73% 30.30 in 10.0 mi WNW 10.4 mph - N/A   Clear
11:35 AM 20.3 °F 10.6 °F 12.2 °F 71% 30.30 in 10.0 mi NW 8.1 mph - N/A   Clear
11:55 AM 21.2 °F 11.7 °F 13.1 °F 71% 30.30 in 10.0 mi NW 8.1 mph - N/A   Clear
12:15 PM 22.1 °F 12.0 °F 13.5 °F 69% 30.28 in 10.0 mi WNW 9.2 mph - N/A   Clear
12:35 PM 22.6 °F 14.3 °F 13.8 °F 69% 30.28 in 10.0 mi NW 6.9 mph - N/A   Clear
12:55 PM 23.5 °F 14.5 °F 14.5 °F 69% 30.27 in 10.0 mi West 8.1 mph - N/A   Clear
1:15 PM 24.4 °F 15.6 °F 14.5 °F 66% 30.26 in 10.0 mi NW 8.1 mph - N/A   Clear
1:35 PM 24.8 °F 14.6 °F 15.1 °F 67% 30.26 in 10.0 mi NW 10.4 mph - N/A   Clear
1:55 PM 25.2 °F 15.1 °F 14.7 °F 65% 30.25 in 10.0 mi NW 10.4 mph - N/A   Clear
2:15 PM 25.5 °F 16.2 °F 15.1 °F 65% 30.25 in 10.0 mi NW 9.2 mph - N/A   Clear
2:35 PM 25.7 °F 17.1 °F 15.3 °F 65% 30.25 in 10.0 mi NW 8.1 mph - N/A   Clear
2:55 PM 25.7 °F 15.7 °F 15.6 °F 66% 30.25 in 10.0 mi NW 10.4 mph - N/A   Clear
3:15 PM 25.5 °F 16.2 °F 15.1 °F 65% 30.25 in 10.0 mi NW 9.2 mph - N/A   Clear
3:35 PM 25.3 °F 17.6 °F 15.6 °F 67% 30.25 in 10.0 mi NW 6.9 mph - N/A   Clear
3:55 PM 24.8 °F 16.9 °F 14.9 °F 66% 30.25 in 10.0 mi NNW 6.9 mph - N/A   Clear
4:15 PM 24.1 °F 15.2 °F 14.9 °F 68% 30.25 in 10.0 mi NNW 8.1 mph - N/A   Clear
4:35 PM 23.0 °F 14.7 °F 14.2 °F 69% 30.25 in 10.0 mi NNW 6.9 mph - N/A   Clear
4:55 PM 21.7 °F 15.5 °F 13.6 °F 71% 30.24 in 10.0 mi NW 4.6 mph - N/A   Clear
5:15 PM 20.5 °F 14.0 °F 12.9 °F 73% 30.24 in 10.0 mi NW 4.6 mph - N/A   Clear
5:35 PM 21.0 °F 13.4 °F 12.4 °F 69% 30.24 in 10.0 mi NW 5.8 mph - N/A   Clear
5:55 PM 19.8 °F 11.9 °F 11.8 °F 71% 30.24 in 10.0 mi NW 5.8 mph - N/A   Clear
6:15 PM 15.8 °F 5.1 °F 9.3 °F 76% 30.24 in 10.0 mi NW 8.1 mph - N/A   Clear
6:35 PM 19.2 °F 11.3 °F 11.7 °F 72% 30.24 in 10.0 mi NW 5.8 mph - N/A   Clear
6:55 PM 16.0 °F 8.8 °F 10.2 °F 78% 30.24 in 10.0 mi NW 4.6 mph - N/A   Clear
7:15 PM 15.3 °F 7.9 °F 9.9 °F 79% 30.23 in 10.0 mi NW 4.6 mph - N/A   Clear
7:35 PM 18.7 °F 13.5 °F 12.0 °F 75% 30.23 in 10.0 mi NNW 3.5 mph - N/A   Clear
7:55 PM 14.5 °F - 9.9 °F 82% 30.23 in 10.0 mi Calm Calm - N/A   Clear
8:15 PM 17.4 °F - 12.0 °F 79% 30.22 in 10.0 mi Calm Calm - N/A   Clear
8:35 PM 12.0 °F - 7.2 °F 81% 30.22 in 10.0 mi Calm Calm - N/A   Clear
8:55 PM 15.4 °F - 11.8 °F 86% 30.22 in 10.0 mi Calm Calm - N/A   Clear
9:15 PM 16.7 °F - 12.4 °F 83% 30.22 in 10.0 mi Calm Calm - N/A   Clear
9:35 PM 11.3 °F - 6.4 °F 81% 30.23 in 10.0 mi Calm Calm - N/A   Clear
9:55 PM 12.4 °F - 9.9 °F 90% 30.22 in 10.0 mi Calm Calm - N/A   Clear
10:15 PM 13.1 °F - 10.6 °F 90% 30.22 in 10.0 mi Calm Calm - N/A   Clear
10:35 PM 14.0 °F - 11.3 °F 89% 30.21 in 10.0 mi Calm Calm - N/A   Clear
10:55 PM 13.5 °F - 10.9 °F 90% 30.21 in 10.0 mi Calm Calm - N/A   Scattered Clouds
11:15 PM 7.9 °F - 5.0 °F 88% 30.21 in 10.0 mi Calm Calm - N/A   Mostly Cloudy
11:35 PM 10.6 °F - 7.7 °F 88% 30.20 in 10.0 mi Calm Calm - N/A   Overcast
11:55 PM 12.7 °F - 10.2 °F 90% 30.19 in 10.0 mi Calm Calm - N/A   Overcast